Progress Software Current Ratio 2006-2019 | PRGS

Progress Software current ratio from 2006 to 2019. Current ratio can be defined as a liquidity ratio that measures a company's ability to pay short-term obligations.
Progress Software Current Ratio Historical Data
Date Current Assets Current Liabilities Current Ratio
2019-02-28 $0.22B $0.18B 1.19
2018-11-30 $0.23B $0.19B 1.24
2018-08-31 $0.20B $0.19B 1.05
2018-05-31 $0.20B $0.20B 1.03
2018-02-28 $0.24B $0.20B 1.17
2017-11-30 $0.26B $0.21B 1.27
2017-08-31 $0.26B $0.21B 1.27
2017-05-31 $0.31B $0.21B 1.48
2017-02-28 $0.34B $0.22B 1.52
2016-11-30 $0.34B $0.20B 1.65
2016-08-31 $0.31B $0.20B 1.58
2016-05-31 $0.30B $0.20B 1.53
2016-02-29 $0.33B $0.20B 1.63
2015-11-30 $0.32B $0.20B 1.62
2015-08-31 $0.33B $0.20B 1.67
2015-05-31 $0.31B $0.20B 1.59
2015-02-28 $0.31B $0.19B 1.61
2014-11-30 $0.38B $0.15B 2.45
2014-08-31 $0.35B $0.15B 2.38
2014-05-31 $0.32B $0.15B 2.14
2014-02-28 $0.35B $0.16B 2.14
2013-11-30 $0.34B $0.17B 2.05
2013-08-31 $0.34B $0.16B 2.05
2013-05-31 $0.36B $0.17B 2.16
2013-02-28 $0.43B $0.18B 2.39
2012-11-30 $0.53B $0.24B 2.19
2012-08-31 $0.47B $0.22B 2.17
2012-05-31 $0.45B $0.23B 1.96
2012-02-29 $0.45B $0.25B 1.84
2011-11-30 $0.41B $0.23B 1.80
2011-08-31 $0.47B $0.23B 2.05
2011-05-31 $0.52B $0.23B 2.25
2011-02-28 $0.52B $0.24B 2.16
2010-11-30 $0.48B $0.24B 2.04
2010-08-31 $0.39B $0.21B 1.85
2010-05-31 $0.39B $0.22B 1.79
2010-02-28 $0.35B $0.25B 1.41
2009-11-30 $0.36B $0.23B 1.58
2009-08-31 $0.31B $0.22B 1.40
2009-05-31 $0.28B $0.23B 1.22
2009-02-28 $0.26B $0.23B 1.10
2008-11-30 $0.25B $0.24B 1.02
2008-08-31 $0.35B $0.21B 1.66
2008-05-31 $0.38B $0.22B 1.72
2008-02-29 $0.35B $0.22B 1.57
2007-11-30 $0.46B $0.23B 2.03
2007-08-31 $0.42B $0.21B 1.99
2007-05-31 $0.40B $0.21B 1.86
2007-02-28 $0.36B $0.21B 1.71
2006-11-30 $0.36B $0.21B 1.68
2006-08-31 $0.34B $0.20B 1.74
2006-05-31 $0.33B $0.20B 1.66
2006-02-28 $0.33B $0.21B 1.53
2005-11-30 $0.36B $0.18B 2.04
2005-08-31 $0.34B $0.17B 1.99
2005-05-31 $0.30B $0.17B 1.75
2005-02-28 $0.30B $0.18B 1.68
Sector Industry Market Cap Revenue
Computer and Technology Computer Software $1.877B $0.397B
Progress offers the leading platform for developing and deploying mission-critical business applications. Progress empowers enterprises and ISVs to build and deliver cognitive-first applications that harness big data to derive business insights and competitive advantage. Progress offers leading technologies for easily building powerful user interfaces across any type of device, a reliable, scalable and secure backend platform to deploy modern applications, leading data connectivity to all sources, and award-winning predictive analytics that brings the power of machine learning to any organization.
Stock Name Country Market Cap PE Ratio
Microsoft (MSFT) United States $971.560B 27.98
Oracle (ORCL) United States $219.730B 17.40
SAP SE (SAP) Germany $155.529B 30.00
Adobe (ADBE) United States $133.821B 48.37
Salesforce, Inc (CRM) United States $118.475B 102.47
VMware (VMW) United States $80.734B 40.47
Intuit (INTU) United States $62.517B 40.42
Autodesk (ADSK) United States $37.324B 513.76
Red Hat (RHT) United States $33.064B 67.15
Cadence Design Systems (CDNS) United States $17.907B 45.51
Synopsys (SNPS) United States $17.514B 29.55
ANSYS (ANSS) United States $15.116B 34.77
SS&C Technologies Holdings (SSNC) United States $14.279B 18.94
Symantec (SYMC) United States $12.765B 17.36
Citrix Systems (CTXS) United States $12.532B 22.29
Open Text (OTEX) Canada $10.865B 39.56
PTC (PTC) United States $9.752B 79.97
Aspen Technology (AZPN) United States $7.846B 40.78
Pegasystems (PEGA) United States $5.757B 0.00
Nuance Communications (NUAN) United States $5.115B 19.81
Manhattan Associates (MANH) United States $4.246B 41.87
Blackbaud (BLKB) United States $3.782B 47.47
Verint Systems (VRNT) United States $3.650B 23.71
ACI Worldwide (ACIW) United States $3.492B 45.11
Cornerstone OnDemand (CSOD) United States $3.169B 0.00
Descartes Systems Group (DSGX) Canada $3.135B 101.50
CommVault Systems (CVLT) United States $2.169B 91.33
PROS Holdings (PRO) United States $1.987B 0.00
Bottomline Technologies (EPAY) United States $1.939B 59.43
MicroStrategy (MSTR) United States $1.371B 171.69
Monotype Imaging Holdings (TYPE) United States $0.695B 21.83
QAD (QADB) United States $0.667B 68.00
Rosetta Stone (RST) United States $0.596B 0.00
Simulations Plus (SLP) United States $0.435B 60.54
Magic Software Enterprises (MGIC) Israel $0.430B 15.71
American Software (AMSWA) United States $0.409B 52.52
Avid Technology (AVID) United States $0.333B 25.58
OptimizeRx (OPRX) United States $0.183B 377.50
GlobalSCAPE (GSB) United States $0.144B 21.41
Park City (PCYG) United States $0.113B 24.78
Icad Inc (ICAD) United States $0.106B 0.00
Smith Micro Software (SMSI) United States $0.100B 44.57
ServiceSource (SREV) United States $0.091B 0.00
NetSol Technologies (NTWK) United States $0.068B 10.80
GSE Systems (GVP) United States $0.046B 10.95
Neonode (NEON) Sweden $0.027B 0.00
BSQUARE (BSQR) United States $0.019B 0.00
CounterPath (CPAH) Canada $0.008B 0.00
Sapiens (SPNS) Israel $0.000B 0.00